カタログに戻る

IRIDIUM 33 DEB

運用中PO
NORAD 34508·DEBRIS·🇺🇸 United States

打ち上げ Sep 14, 1997 から Baikonur Cosmodrome

Loading…

次のパス (今後24時間)

TLE

最新Source: Space-Track

元期: Sep 14, 2026, 04:20 UTC

1 34508U 97051GZ  26257.18071707  .00001736  00000-0  53245-3 0  9994
2 34508  86.3751 345.6701 0062022 349.7291  10.2636 14.40080436912713

AllMySatでIRIDIUM 33 DEBをリアルタイム追跡

Download on the App Store